Location: Chillicothe
(39.7950°N, 93.5520°W)
Time: 15:44:08
(UTC-05:00)

Envisat - Visible Passes

Search period start: 14 October 2019 00:00
Search period end: 24 October 2019 00:00
Orbit: 764 x 766 km, 98.1° (Epoch: 14 October)

Date Brightness Start Highest point End Pass type
(mag) Time Alt. Az. Time Alt. Az. Time Alt. Az.
14 Oct 6.8 06:44:08 10° E 06:44:56 10° E 06:45:44 10° E visible
14 Oct 3.4 19:33:05 10° S 19:38:08 69° WSW 19:43:13 10° NNW visible
15 Oct 3.1 18:56:31 10° SSE 19:01:26 53° ENE 19:06:22 10° N visible
15 Oct 5.8 20:37:29 10° SW 20:40:45 17° W 20:44:02 10° NW visible
16 Oct 4.5 19:59:01 10° SSW 20:03:43 38° W 20:08:27 10° NNW visible
17 Oct 3.0 19:21:47 10° SSE 19:26:52 87° WSW 19:31:59 10° NNW visible
18 Oct 5.5 20:25:31 10° SW 20:29:23 22° W 20:33:16 10° NW visible
19 Oct 6.3 06:56:27 10° NE 06:59:21 15° E 07:02:15 10° SE visible
19 Oct 4.0 19:47:31 10° S 19:52:24 49° W 19:57:20 10° NNW visible
20 Oct 2.9 19:10:34 10° SSE 19:15:37 74° ENE 19:20:42 10° N visible
20 Oct 6.2 20:53:18 10° WSW 20:55:10 12° W 20:57:01 10° WNW visible
21 Oct 5.1 20:13:45 10° SSW 20:18:02 27° W 20:22:21 10° NW visible
22 Oct 6.6 06:46:14 10° ENE 06:47:57 12° E 06:49:41 10° ESE visible
22 Oct 3.5 19:36:06 10° S 19:41:07 63° W 19:46:10 10° NNW visible
23 Oct 3.0 18:59:25 10° SSE 19:04:23 58° ENE 19:09:23 10° N visible
23 Oct 5.9 20:40:49 10° SW 20:43:46 15° W 20:46:45 10° NW visible
